Time,TemperatureF,DewpointF,PressureIn,WindDirection,WindDirectionDegrees,WindSpeedMPH,WindSpeedGustMPH,Humidity,HourlyPrecipIn,Conditions,Clouds,dailyrainin,SoftwareType,DateUTC
2013-06-01 00:00:00,48.7,35.5,30.30,WNW,292,0.0,0.0,60,0.00,,,0.00,VWS V14.01,2013-06-01 07:00:00,
2013-06-01 00:09:00,48.0,35.0,30.30,WNW,286,0.0,0.0,62,0.00,,,0.00,weatherlink.com 1.10,2013-06-01 07:09:00,
2013-06-01 00:24:00,47.2,34.0,30.30,WNW,286,0.0,0.0,61,0.00,,,0.00,weatherlink.com 1.10,2013-06-01 07:24:00,
2013-06-01 00:30:00,47.2,33.6,30.30,WNW,292,0.0,0.0,59,0.00,,,0.00,VWS V14.01,2013-06-01 07:30:00,
2013-06-01 00:39:00,46.9,31.0,30.30,WNW,286,0.0,0.0,55,0.00,,,0.00,weatherlink.com 1.10,2013-06-01 07:39:00,
2013-06-01 00:54:00,46.4,30.0,30.30,WNW,286,0.0,0.0,53,0.00,,,0.00,weatherlink.com 1.10,2013-06-01 07:54:00,
2013-06-01 01:00:00,46.3,29.2,30.30,WNW,292,0.0,0.0,51,0.00,,,0.00,VWS V14.01,2013-06-01 08:00:00,
2013-06-01 01:09:00,46.0,28.0,30.30,WNW,286,0.0,0.0,50,0.00,,,0.00,weatherlink.com 1.10,2013-06-01 08:09:00,
2013-06-01 01:24:00,45.7,27.0,30.30,WNW,286,0.0,0.0,48,0.00,,,0.00,weatherlink.com 1.10,2013-06-01 08:24:00,
2013-06-01 01:30:00,45.6,26.5,30.30,WNW,292,0.0,0.0,47,0.00,,,0.00,VWS V14.01,2013-06-01 08:30:00,
2013-06-01 01:39:00,45.2,27.0,30.30,WNW,286,0.0,0.0,49,0.00,,,0.00,weatherlink.com 1.10,2013-06-01 08:39:00,
2013-06-01 01:54:00,44.8,25.0,30.29,WNW,286,0.0,0.0,47,0.00,,,0.00,weatherlink.com 1.10,2013-06-01 08:54:00,
2013-06-01 02:00:00,44.7,25.7,30.29,WNW,292,0.0,0.0,47,0.00,,,0.00,VWS V14.01,2013-06-01 09:00:00,
2013-06-01 02:09:00,44.5,24.0,30.29,WNW,286,0.0,0.0,44,0.00,,,0.00,weatherlink.com 1.10,2013-06-01 09:09:00,
2013-06-01 02:24:00,44.4,22.0,30.30,WNW,286,0.0,0.0,42,0.00,,,0.00,weatherlink.com 1.10,2013-06-01 09:24:00,
2013-06-01 02:30:00,44.3,22.7,30.30,WNW,292,0.0,0.0,42,0.00,,,0.00,VWS V14.01,2013-06-01 09:30:00,
2013-06-01 02:39:00,44.2,22.0,30.29,WNW,286,0.0,0.0,41,0.00,,,0.00,weatherlink.com 1.10,2013-06-01 09:39:00,
2013-06-01 02:54:00,44.4,20.0,30.29,WNW,286,0.0,0.0,38,0.00,,,0.00,weatherlink.com 1.10,2013-06-01 09:54:00,
2013-06-01 03:00:00,44.5,20.5,30.29,WNW,292,0.0,0.0,38,0.00,,,0.00,VWS V14.01,2013-06-01 10:00:00,
2013-06-01 03:09:00,44.6,20.0,30.29,WNW,286,0.0,0.0,37,0.00,,,0.00,weatherlink.com 1.10,2013-06-01 10:09:00,
2013-06-01 03:24:00,44.6,20.0,30.28,WNW,286,0.0,0.0,37,0.00,,,0.00,weatherlink.com 1.10,2013-06-01 10:24:00,
2013-06-01 03:30:00,44.5,19.9,30.28,WNW,292,0.0,0.0,37,0.00,,,0.00,VWS V14.01,2013-06-01 10:30:00,
2013-06-01 03:39:00,44.7,20.0,30.28,WNW,286,0.0,0.0,37,0.00,,,0.00,weatherlink.com 1.10,2013-06-01 10:39:00,
2013-06-01 03:54:00,44.6,20.0,30.28,WNW,286,0.0,0.0,37,0.00,,,0.00,weatherlink.com 1.10,2013-06-01 10:54:00,
2013-06-01 04:00:00,44.5,19.9,30.28,WNW,292,0.0,0.0,37,0.00,,,0.00,VWS V14.01,2013-06-01 11:00:00,
2013-06-01 04:09:00,44.4,20.0,30.28,WNW,286,0.0,0.0,38,0.00,,,0.00,weatherlink.com 1.10,2013-06-01 11:09:00,
2013-06-01 04:24:00,44.3,19.0,30.28,WNW,286,0.0,0.0,37,0.00,,,0.00,weatherlink.com 1.10,2013-06-01 11:24:00,
2013-06-01 04:30:00,44.3,19.7,30.28,WNW,292,0.0,0.0,37,0.00,,,0.00,VWS V14.01,2013-06-01 11:30:00,
2013-06-01 04:39:00,44.2,20.0,30.27,WNW,286,0.0,0.0,38,0.00,,,0.00,weatherlink.com 1.10,2013-06-01 11:39:00,
2013-06-01 04:54:00,43.7,20.0,30.27,WNW,286,0.0,0.0,39,0.00,,,0.00,weatherlink.com 1.10,2013-06-01 11:54:00,
2013-06-01 05:00:00,43.7,20.4,30.27,WNW,292,0.0,0.0,39,0.00,,,0.00,VWS V14.01,2013-06-01 12:00:00,
2013-06-01 05:09:00,43.9,19.0,30.27,WNW,286,0.0,0.0,37,0.00,,,0.00,weatherlink.com 1.10,2013-06-01 12:09:00,
2013-06-01 05:24:00,44.2,19.0,30.27,WNW,286,0.0,0.0,37,0.00,,,0.00,weatherlink.com 1.10,2013-06-01 12:24:00,
2013-06-01 05:30:00,44.3,19.7,30.27,WNW,292,0.0,0.0,37,0.00,,,0.00,VWS V14.01,2013-06-01 12:30:00,
2013-06-01 05:39:00,44.4,19.0,30.27,WNW,286,0.0,0.0,37,0.00,,,0.00,weatherlink.com 1.10,2013-06-01 12:39:00,
2013-06-01 05:54:00,44.7,19.0,30.27,WNW,286,0.0,0.0,36,0.00,,,0.00,weatherlink.com 1.10,2013-06-01 12:54:00,
2013-06-01 06:00:00,44.8,19.5,30.27,WNW,292,0.0,0.0,36,0.00,,,0.00,VWS V14.01,2013-06-01 13:00:00,
2013-06-01 06:09:00,45.3,20.0,30.27,WNW,286,0.0,0.0,37,0.00,,,0.00,weatherlink.com 1.10,2013-06-01 13:09:00,
2013-06-01 06:24:00,46.0,21.0,30.26,WNW,286,0.0,0.0,37,0.00,,,0.00,weatherlink.com 1.10,2013-06-01 13:24:00,
2013-06-01 06:30:00,46.1,21.3,30.26,WNW,292,0.0,0.0,37,0.00,,,0.00,VWS V14.01,2013-06-01 13:30:00,
2013-06-01 06:39:00,46.5,21.0,30.26,WNW,286,0.0,2.0,37,0.00,,,0.00,weatherlink.com 1.10,2013-06-01 13:39:00,
2013-06-01 06:54:00,46.7,21.0,30.27,WNW,286,0.0,2.0,37,0.00,,,0.00,weatherlink.com 1.10,2013-06-01 13:54:00,
2013-06-01 07:00:00,46.8,21.9,30.27,WNW,292,0.0,2.0,37,0.00,,,0.00,VWS V14.01,2013-06-01 14:00:00,
2013-06-01 07:09:00,47.4,21.0,30.27,WNW,286,0.0,2.0,36,0.00,,,0.00,weatherlink.com 1.10,2013-06-01 14:09:00,
2013-06-01 07:24:00,48.3,23.0,30.27,WNW,286,0.0,0.0,37,0.00,,,0.00,weatherlink.com 1.10,2013-06-01 14:24:00,
2013-06-01 07:30:00,48.6,23.5,30.27,WNW,292,0.0,2.0,37,0.00,,,0.00,VWS V14.01,2013-06-01 14:30:00,
2013-06-01 07:39:00,49.5,24.0,30.26,WNW,286,0.0,0.0,37,0.00,,,0.00,weatherlink.com 1.10,2013-06-01 14:39:00,
2013-06-01 07:54:00,50.3,25.0,30.26,WNW,286,0.0,0.0,37,0.00,,,0.00,weatherlink.com 1.10,2013-06-01 14:54:00,
2013-06-01 08:00:00,50.5,25.2,30.26,WNW,292,0.0,0.0,37,0.00,,,0.00,VWS V14.01,2013-06-01 15:00:00,
2013-06-01 08:09:00,51.3,26.0,30.26,NNW,347,0.0,2.0,37,0.00,,,0.00,weatherlink.com 1.10,2013-06-01 15:09:00,
2013-06-01 08:24:00,52.1,26.0,30.25,WSW,237,0.0,2.0,36,0.00,,,0.00,weatherlink.com 1.10,2013-06-01 15:24:00,
2013-06-01 08:30:00,52.2,26.1,30.25,NW,315,0.0,3.0,36,0.00,,,0.00,VWS V14.01,2013-06-01 15:30:00,
2013-06-01 08:39:00,52.8,26.0,30.25,SSW,207,0.0,3.0,35,0.00,,,0.00,weatherlink.com 1.10,2013-06-01 15:39:00,
2013-06-01 08:55:00,53.9,36.0,30.25,East,98,1.0,2.0,52,0.00,,,0.00,weatherlink.com 1.10,2013-06-01 15:55:00,
2013-06-01 09:00:00,54.1,40.1,30.25,SSW,202,1.0,3.0,59,0.00,,,0.00,VWS V14.01,2013-06-01 16:00:00,
2013-06-01 09:10:00,54.7,46.0,30.25,ESE,117,0.0,1.0,73,0.00,,,0.00,weatherlink.com 1.10,2013-06-01 16:10:00,
2013-06-01 09:25:00,55.8,48.0,30.25,SSW,205,0.0,2.0,74,0.00,,,0.00,weatherlink.com 1.10,2013-06-01 16:25:00,
2013-06-01 09:30:00,56.1,48.3,30.25,South,180,0.0,2.0,75,0.00,,,0.00,VWS V14.01,2013-06-01 16:30:00,
2013-06-01 09:40:00,57.3,51.0,30.25,NNE,25,3.0,4.0,80,0.00,,,0.00,weatherlink.com 1.10,2013-06-01 16:40:00,
2013-06-01 09:55:00,58.2,52.0,30.25,NW,317,1.0,4.0,79,0.00,,,0.00,weatherlink.com 1.10,2013-06-01 16:55:00,
2013-06-01 10:00:00,58.4,51.9,30.25,North,0,1.0,4.0,79,0.00,,,0.00,VWS V14.01,2013-06-01 17:00:00,
2013-06-01 10:10:00,58.4,52.0,30.24,NNE,26,2.0,3.0,79,0.00,,,0.00,weatherlink.com 1.10,2013-06-01 17:10:00,
2013-06-01 10:25:00,58.7,53.0,30.23,NNE,27,2.0,5.0,80,0.00,,,0.00,weatherlink.com 1.10,2013-06-01 17:25:00,
2013-06-01 10:30:00,58.7,52.2,30.24,NNE,22,1.0,5.0,79,0.00,,,0.00,VWS V14.01,2013-06-01 17:30:00,
2013-06-01 10:40:00,59.5,53.0,30.23,NE,42,0.0,4.0,79,0.00,,,0.00,weatherlink.com 1.10,2013-06-01 17:40:00,
2013-06-01 10:55:00,60.6,54.0,30.22,NNE,30,2.0,5.0,78,0.00,,,0.00,weatherlink.com 1.10,2013-06-01 17:55:00,
2013-06-01 11:00:00,60.7,53.5,30.22,NE,45,2.0,5.0,77,0.00,,,0.00,VWS V14.01,2013-06-01 18:00:00,
2013-06-01 11:10:00,61.7,54.0,30.22,NE,43,2.0,5.0,75,0.00,,,0.00,weatherlink.com 1.10,2013-06-01 18:10:00,
2013-06-01 11:25:00,62.0,54.0,30.21,North,355,0.0,7.0,76,0.00,,,0.00,weatherlink.com 1.10,2013-06-01 18:25:00,
2013-06-01 11:30:00,62.1,55.2,30.22,NE,45,1.0,7.0,78,0.00,,,0.00,VWS V14.01,2013-06-01 18:30:00,
2013-06-01 11:40:00,62.6,55.0,30.22,NE,43,5.0,8.0,75,0.00,,,0.00,weatherlink.com 1.10,2013-06-01 18:40:00,
2013-06-01 11:55:00,62.3,55.0,30.22,NNE,20,5.0,7.0,76,0.00,,,0.00,weatherlink.com 1.10,2013-06-01 18:55:00,
2013-06-01 12:00:00,62.5,54.8,30.21,NE,45,3.0,8.0,76,0.00,,,0.00,VWS V14.01,2013-06-01 19:00:00,
2013-06-01 12:10:00,63.8,55.0,30.21,NNE,14,5.0,8.0,73,0.00,,,0.00,weatherlink.com 1.10,2013-06-01 19:10:00,
2013-06-01 12:25:00,63.3,53.0,30.20,NE,34,0.0,7.0,69,0.00,,,0.00,weatherlink.com 1.10,2013-06-01 19:25:00,
2013-06-01 12:30:00,63.3,54.5,30.20,North,0,3.0,8.0,73,0.00,,,0.00,VWS V14.01,2013-06-01 19:30:00,
2013-06-01 12:40:00,64.3,55.0,30.20,NW,312,4.0,8.0,73,0.00,,,0.00,weatherlink.com 1.10,2013-06-01 19:40:00,
2013-06-01 12:55:00,65.0,55.0,30.19,NW,326,2.0,8.0,71,0.00,,,0.00,weatherlink.com 1.10,2013-06-01 19:55:00,
2013-06-01 13:00:00,65.0,55.4,30.19,NNE,22,3.0,8.0,71,0.00,,,0.00,VWS V14.01,2013-06-01 20:00:00,
2013-06-01 13:10:00,65.1,56.0,30.19,NNW,342,2.0,4.0,72,0.00,,,0.00,weatherlink.com 1.10,2013-06-01 20:10:00,
2013-06-01 13:25:00,64.7,54.0,30.18,NNE,20,1.0,6.0,68,0.00,,,0.00,weatherlink.com 1.10,2013-06-01 20:25:00,
2013-06-01 13:30:00,64.6,53.8,30.18,NNE,22,2.0,6.0,68,0.00,,,0.00,VWS V14.01,2013-06-01 20:30:00,
2013-06-01 13:40:00,65.5,55.0,30.18,ENE,69,3.0,7.0,69,0.00,,,0.00,weatherlink.com 1.10,2013-06-01 20:40:00,
2013-06-01 13:55:00,66.2,55.0,30.18,NNW,329,0.0,6.0,68,0.00,,,0.00,weatherlink.com 1.10,2013-06-01 20:55:00,
2013-06-01 14:00:00,66.5,52.7,30.18,NE,45,2.0,7.0,61,0.00,,,0.00,VWS V14.01,2013-06-01 21:00:00,
2013-06-01 14:10:00,67.0,53.0,30.18,NNW,338,0.0,5.0,61,0.00,,,0.00,weatherlink.com 1.10,2013-06-01 21:10:00,
2013-06-01 14:25:00,67.7,53.0,30.18,SSW,207,2.0,8.0,60,0.00,,,0.00,weatherlink.com 1.10,2013-06-01 21:25:00,
2013-06-01 14:30:00,67.9,54.8,30.18,North,0,3.0,8.0,63,0.00,,,0.00,VWS V14.01,2013-06-01 21:30:00,
2013-06-01 14:40:00,67.7,53.0,30.17,West,277,3.0,7.0,59,0.00,,,0.00,weatherlink.com 1.10,2013-06-01 21:40:00,
2013-06-01 14:56:00,68.9,55.0,30.17,WSW,248,4.0,8.0,62,0.00,,,0.00,weatherlink.com 1.10,2013-06-01 21:56:00,
2013-06-01 15:00:00,69.1,54.2,30.17,NW,315,3.0,8.0,59,0.00,,,0.00,VWS V14.01,2013-06-01 22:00:00,
2013-06-01 15:11:00,68.2,55.0,30.16,West,273,5.0,11.0,64,0.00,,,0.00,weatherlink.com 1.10,2013-06-01 22:11:00,
2013-06-01 15:26:00,68.8,54.0,30.16,WNW,295,5.0,9.0,59,0.00,,,0.00,weatherlink.com 1.10,2013-06-01 22:26:00,
2013-06-01 15:30:00,68.7,54.7,30.16,WNW,292,5.0,12.0,61,0.00,,,0.00,VWS V14.01,2013-06-01 22:30:00,
2013-06-01 15:41:00,69.5,54.0,30.15,WNW,288,4.0,10.0,59,0.00,,,0.00,weatherlink.com 1.10,2013-06-01 22:41:00,
2013-06-01 15:56:00,70.0,55.0,30.15,West,271,4.0,7.0,59,0.00,,,0.00,weatherlink.com 1.10,2013-06-01 22:56:00,
2013-06-01 16:00:00,69.9,54.9,30.15,WNW,292,4.0,11.0,59,0.00,,,0.00,VWS V14.01,2013-06-01 23:00:00,
2013-06-01 16:11:00,69.5,55.0,30.14,NNW,329,5.0,8.0,61,0.00,,,0.00,weatherlink.com 1.10,2013-06-01 23:11:00,
2013-06-01 16:26:00,68.7,55.0,30.15,NW,314,3.0,9.0,61,0.00,,,0.00,weatherlink.com 1.10,2013-06-01 23:26:00,
2013-06-01 16:30:00,68.8,54.8,30.15,WNW,292,4.0,10.0,61,0.00,,,0.00,VWS V14.01,2013-06-01 23:30:00,
2013-06-01 16:41:00,69.5,56.0,30.14,WNW,299,5.0,11.0,62,0.00,,,0.00,weatherlink.com 1.10,2013-06-01 23:41:00,
2013-06-01 16:56:00,69.5,55.0,30.13,SSW,213,8.0,10.0,60,0.00,,,0.00,weatherlink.com 1.10,2013-06-01 23:56:00,
2013-06-01 17:00:00,69.5,55.9,30.13,WNW,292,4.0,11.0,62,0.00,,,0.00,VWS V14.01,2013-06-02 00:00:00,
2013-06-01 17:11:00,69.8,57.0,30.13,West,259,4.0,12.0,63,0.00,,,0.00,weatherlink.com 1.10,2013-06-02 00:11:00,
2013-06-01 17:26:00,68.6,56.0,30.13,WSW,239,2.0,10.0,64,0.00,,,0.00,weatherlink.com 1.10,2013-06-02 00:26:00,
2013-06-01 17:30:00,68.5,55.9,30.13,WNW,292,4.0,12.0,64,0.00,,,0.00,VWS V14.01,2013-06-02 00:30:00,
2013-06-01 17:41:00,68.6,54.0,30.13,NNW,344,12.0,12.0,61,0.00,,,0.00,weatherlink.com 1.10,2013-06-02 00:41:00,
2013-06-01 17:56:00,67.4,55.0,30.12,West,277,4.0,10.0,64,0.00,,,0.00,weatherlink.com 1.10,2013-06-02 00:56:00,
2013-06-01 18:00:00,67.4,54.8,30.12,WNW,292,5.0,12.0,64,0.00,,,0.00,VWS V14.01,2013-06-02 01:00:00,
2013-06-01 18:11:00,67.4,55.0,30.11,WSW,244,8.0,11.0,65,0.00,,,0.00,weatherlink.com 1.10,2013-06-02 01:11:00,
2013-06-01 18:26:00,67.2,54.0,30.11,WNW,296,4.0,8.0,63,0.00,,,0.00,weatherlink.com 1.10,2013-06-02 01:26:00,
2013-06-01 18:30:00,67.1,54.5,30.11,West,270,4.0,11.0,64,0.00,,,0.00,VWS V14.01,2013-06-02 01:30:00,
2013-06-01 18:41:00,66.1,53.0,30.11,WNW,298,2.0,10.0,64,0.00,,,0.00,weatherlink.com 1.10,2013-06-02 01:41:00,
2013-06-01 18:56:00,65.5,52.0,30.11,West,281,4.0,10.0,63,0.00,,,0.00,weatherlink.com 1.10,2013-06-02 01:56:00,
2013-06-01 19:00:00,65.1,52.6,30.11,West,270,4.0,10.0,64,0.00,,,0.00,VWS V14.01,2013-06-02 02:00:00,
2013-06-01 19:11:00,64.6,52.0,30.11,West,275,6.0,7.0,65,0.00,,,0.00,weatherlink.com 1.10,2013-06-02 02:11:00,
2013-06-01 19:26:00,63.6,52.0,30.11,WSW,249,3.0,8.0,67,0.00,,,0.00,weatherlink.com 1.10,2013-06-02 02:26:00,
2013-06-01 19:30:00,63.6,52.5,30.11,West,270,4.0,8.0,67,0.00,,,0.00,VWS V14.01,2013-06-02 02:30:00,
2013-06-01 19:41:00,62.3,52.0,30.10,WSW,237,4.0,8.0,68,0.00,,,0.00,weatherlink.com 1.10,2013-06-02 02:41:00,
2013-06-01 19:56:00,61.3,51.0,30.10,SW,236,3.0,7.0,69,0.00,,,0.00,weatherlink.com 1.10,2013-06-02 02:56:00,
2013-06-01 20:00:00,61.3,51.1,30.10,WSW,248,4.0,11.0,69,0.00,,,0.00,VWS V14.01,2013-06-02 03:00:00,
2013-06-01 20:11:00,60.1,51.0,30.10,WSW,246,2.0,9.0,71,0.00,,,0.00,weatherlink.com 1.10,2013-06-02 03:11:00,
2013-06-01 20:26:00,58.3,50.0,30.10,SW,232,2.0,8.0,73,0.00,,,0.00,weatherlink.com 1.10,2013-06-02 03:26:00,
2013-06-01 20:30:00,58.2,49.6,30.10,WSW,248,4.0,9.0,73,0.00,,,0.00,VWS V14.01,2013-06-02 03:30:00,
2013-06-01 20:41:00,57.2,49.0,30.10,WSW,257,1.0,3.0,75,0.00,,,0.00,weatherlink.com 1.10,2013-06-02 03:41:00,
2013-06-01 20:56:00,56.3,49.0,30.10,West,273,0.0,4.0,77,0.00,,,0.00,weatherlink.com 1.10,2013-06-02 03:56:00,
2013-06-01 21:00:00,56.2,49.1,30.10,WSW,248,1.0,6.0,77,0.00,,,0.00,VWS V14.01,2013-06-02 04:00:00,
2013-06-01 21:11:00,55.4,49.0,30.10,West,259,0.0,4.0,78,0.00,,,0.00,weatherlink.com 1.10,2013-06-02 04:11:00,
2013-06-01 21:26:00,54.7,48.0,30.11,SSW,197,0.0,4.0,79,0.00,,,0.00,weatherlink.com 1.10,2013-06-02 04:26:00,
2013-06-01 21:30:00,54.6,48.2,30.11,West,270,1.0,4.0,79,0.00,,,0.00,VWS V14.01,2013-06-02 04:30:00,
2013-06-01 21:41:00,54.4,48.0,30.11,NE,38,0.0,4.0,80,0.00,,,0.00,weatherlink.com 1.10,2013-06-02 04:41:00,
2013-06-01 21:56:00,54.2,48.0,30.12,NE,51,1.0,2.0,80,0.00,,,0.00,weatherlink.com 1.10,2013-06-02 04:56:00,
2013-06-01 22:00:00,54.1,48.1,30.12,NE,45,0.0,4.0,80,0.00,,,0.00,VWS V14.01,2013-06-02 05:00:00,
2013-06-01 22:11:00,53.3,47.0,30.12,WNW,287,1.0,5.0,80,0.00,,,0.00,weatherlink.com 1.10,2013-06-02 05:11:00,
2013-06-01 22:26:00,52.7,47.0,30.12,WNW,302,0.0,2.0,81,0.00,,,0.00,weatherlink.com 1.10,2013-06-02 05:26:00,
2013-06-01 22:30:00,52.6,46.9,30.12,NW,315,1.0,5.0,81,0.00,,,0.00,VWS V14.01,2013-06-02 05:30:00,
2013-06-01 22:41:00,51.8,46.0,30.12,WNW,302,0.0,0.0,81,0.00,,,0.00,weatherlink.com 1.10,2013-06-02 05:41:00,
2013-06-01 22:56:00,51.3,45.0,30.12,West,265,0.0,4.0,79,0.00,,,0.00,weatherlink.com 1.10,2013-06-02 05:56:00,
2013-06-01 23:00:00,51.4,45.1,30.12,WSW,248,0.0,4.0,79,0.00,,,0.00,VWS V14.01,2013-06-02 06:00:00,
2013-06-01 23:11:00,51.9,46.0,30.12,WNW,284,0.0,5.0,80,0.00,,,0.00,weatherlink.com 1.10,2013-06-02 06:11:00,
2013-06-01 23:26:00,52.0,46.0,30.12,SSW,211,3.0,6.0,80,0.00,,,0.00,weatherlink.com 1.10,2013-06-02 06:26:00,
2013-06-01 23:30:00,52.0,45.7,30.12,WSW,248,2.0,6.0,79,0.00,,,0.00,VWS V14.01,2013-06-02 06:30:00,
2013-06-01 23:41:00,52.2,46.0,30.12,WNW,286,3.0,8.0,79,0.00,,,0.00,weatherlink.com 1.10,2013-06-02 06:41:00,
2013-06-01 23:56:00,52.2,46.0,30.12,WNW,301,1.0,6.0,80,0.00,,,0.00,weatherlink.com 1.10,2013-06-02 06:56:00,